KD5UIG Weather Reports


time (UTC)temp
C
wind
direction
speed
KPH
gust
KPH
rain 1hr
cm
rain 24hr
cm
rain mn
cm
humidity
%
barometer
mb
20260906221605 39 132 0.0 12.9 0.00 0.00 0.00 37 1011.2
20260906221055 39 194 3.2 12.9 0.00 0.00 0.00 37 1011.3
20260906220556 39 113 1.6 11.3 0.00 0.00 0.00 37 1011.3
20260906215555 39 69 3.2 12.9 0.00 0.00 0.00 37 1011.3
20260906215056 39 186 3.2 12.9 0.00 0.00 0.00 37 1011.5
20260906214603 39 201 1.6 17.7 0.00 0.00 0.00 38 1011.5
20260906214055 39 148 3.2 17.7 0.00 0.00 0.00 37 1011.6
20260906213555 39 104 4.8 17.7 0.00 0.00 0.00 36 1011.6
20260906213106 39 61 4.8 12.9 0.00 0.00 0.00 37 1011.6
20260906212555 39 61 3.2 11.3 0.00 0.00 0.00 36 1011.7
20260906212056 40 196 1.6 12.9 0.00 0.00 0.00 36 1011.8
20260906211604 40 202 1.6 14.5 0.00 0.00 0.00 37 1011.8
20260906211057 39 184 4.8 14.5 0.00 0.00 0.00 37 1012.0
20260906210557 40 66 3.2 9.7 0.00 0.00 0.00 36 1012.0
20260906210115 39 82 1.6 11.3 0.00 0.00 0.00 37 1012.2
20260906205557 40 121 3.2 11.3 0.00 0.00 0.00 37 1012.3
20260906205055 39 160 1.6 11.3 0.00 0.00 0.00 39 1012.3
20260906204608 39 78 1.6 14.5 0.00 0.00 0.00 37 1012.5
20260906204056 39 166 4.8 14.5 0.00 0.00 0.00 38 1012.5
20260906203556 39 260 3.2 16.1 0.00 0.00 0.00 37 1012.5
20260906203104 39 82 3.2 16.1 0.00 0.00 0.00 37 1012.5
20260906202555 39 141 3.2 12.9 0.00 0.00 0.00 38 1012.6
20260906202101 39 138 1.6 11.3 0.00 0.00 0.00 38 1012.7
20260906201603 39 209 3.2 20.9 0.00 0.00 0.00 37 1012.8
20260906201056 39 37 1.6 20.9 0.00 0.00 0.00 38 1012.8
20260906200555 39 78 1.6 12.9 0.00 0.00 0.00 37 1012.8
20260906200104 39 121 3.2 16.1 0.00 0.00 0.00 38 1012.9
20260906195556 39 223 1.6 16.1 0.00 0.00 0.00 38 1012.9
20260906195056 39 69 4.8 16.1 0.00 0.00 0.00 38 1013.0
20260906194609 39 138 3.2 16.1 0.00 0.00 0.00 38 1013.0
20260906194056 39 194 4.8 17.7 0.00 0.00 0.00 37 1013.0
20260906193556 38 37 4.8 22.5 0.00 0.00 0.00 37 1013.2
20260906193102 38 215 3.2 22.5 0.00 0.00 0.00 38 1013.3
20260906192556 38 173 4.8 19.3 0.00 0.00 0.00 38 1013.3
20260906192059 38 111 3.2 19.3 0.00 0.00 0.00 38 1013.3
20260906191605 38 104 4.8 12.9 0.00 0.00 0.00 38 1013.3
20260906191056 38 94 3.2 12.9 0.00 0.00 0.00 39 1013.4
20260906190558 38 93 3.2 16.1 0.00 0.00 0.00 39 1013.5
20260906190103 38 94 4.8 19.3 0.00 0.00 0.00 39 1013.5
20260906185556 38 53 4.8 19.3 0.00 0.00 0.00 39 1013.4
20260906185056 38 91 4.8 16.1 0.00 0.00 0.00 39 1013.5
20260906184610 38 76 4.8 17.7 0.00 0.00 0.00 39 1013.6
20260906184055 38 60 3.2 17.7 0.00 0.00 0.00 40 1013.7
20260906183555 38 96 9.7 17.7 0.00 0.00 0.00 38 1013.7
20260906183105 38 91 6.4 17.7 0.00 0.00 0.00 40 1013.7
20260906182555 38 85 4.8 17.7 0.00 0.00 0.00 40 1013.9
20260906182056 37 123 4.8 12.9 0.00 0.00 0.00 40 1013.9
20260906181609 37 79 3.2 19.3 0.00 0.00 0.00 41 1013.9
20260906181057 37 95 3.2 19.3 0.00 0.00 0.00 42 1014.0
20260906180555 37 57 8.0 17.7 0.00 0.00 0.00 42 1014.1
20260906180105 37 68 6.4 17.7 0.00 0.00 0.00 42 1014.0
20260906175555 37 67 6.4 17.7 0.00 0.00 0.00 41 1014.2
20260906175055 37 18 3.2 14.5 0.00 0.00 0.00 43 1014.4
20260906174602 37 0 4.8 14.5 0.00 0.00 0.00 43 1014.4
20260906174056 37 140 3.2 11.3 0.00 0.00 0.00 42 1014.4
20260906173556 37 71 4.8 11.3 0.00 0.00 0.00 42 1014.6
20260906173108 37 120 1.6 11.3 0.00 0.00 0.00 44 1014.7
20260906172555 37 122 3.2 12.9 0.00 0.00 0.00 44 1014.8
20260906172056 37 132 3.2 12.9 0.00 0.00 0.00 43 1014.7
20260906171604 37 146 3.2 12.9 0.00 0.00 0.00 43 1014.8
20260906171058 37 55 4.8 12.9 0.00 0.00 0.00 43 1014.9
20260906170555 37 120 1.6 12.9 0.00 0.00 0.00 44 1014.9
20260906170106 37 95 4.8 12.9 0.00 0.00 0.00 43 1015.0
20260906165556 37 0 1.6 12.9 0.00 0.00 0.00 45 1015.0
20260906165055 37 219 1.6 12.9 0.00 0.00 0.00 45 1015.1
20260906164620 37 90 3.2 11.3 0.00 0.00 0.00 46 1015.0
20260906164055 37 87 1.6 11.3 0.00 0.00 0.00 45 1015.1
20260906163555 37 98 3.2 9.7 0.00 0.00 0.00 46 1015.1
20260906163100 37 169 1.6 6.4 0.00 0.00 0.00 45 1015.0
20260906162556 36 160 1.6 8.0 0.00 0.00 0.00 46 1015.1
20260906162055 36 113 3.2 8.0 0.00 0.00 0.00 47 1015.0
20260906161605 36 203 1.6 11.3 0.00 0.00 0.00 48 1015.0
20260906161055 36 0 3.2 12.9 0.00 0.00 0.00 48 1014.9
20260906160555 35 52 3.2 12.9 0.00 0.00 0.00 48 1014.9
20260906160101 36 67 3.2 9.7 0.00 0.00 0.00 48 1015.0
20260906155556 36 91 3.2 9.7 0.00 0.00 0.00 49 1015.0
20260906155059 35 107 1.6 14.5 0.00 0.00 0.00 51 1014.9
20260906154602 35 71 3.2 14.5 0.00 0.00 0.00 49 1015.0
20260906154058 35 136 1.6 11.3 0.00 0.00 0.00 51 1014.9
20260906153555 35 94 3.2 6.4 0.00 0.00 0.00 51 1014.9
20260906153104 35 0 1.6 6.4 0.00 0.00 0.00 53 1014.9
20260906152556 34 0 1.6 8.0 0.00 0.00 0.00 54 1014.7
20260906152055 34 86 1.6 8.0 0.00 0.00 0.00 54 1014.7
20260906151607 34 92 0.0 6.4 0.00 0.00 0.00 57 1014.5
20260906151056 33 74 0.0 3.2 0.00 0.00 0.00 57 1014.6
20260906150555 33 76 0.0 4.8 0.00 0.00 0.00 59 1014.5
20260906145556 33 74 1.6 4.8 0.00 0.00 0.00 60 1014.4
20260906145056 32 81 0.0 4.8 0.00 0.00 0.00 61 1014.4
20260906144629 32 83 1.6 6.4 0.00 0.00 0.00 61 1014.3
20260906144055 32 105 1.6 6.4 0.00 0.00 0.00 62 1014.3
20260906143556 32 110 1.6 4.8 0.00 0.00 0.00 64 1014.3
20260906143116 31 0 0.0 4.8 0.00 0.00 0.00 65 1014.3
20260906142555 31 142 0.0 4.8 0.00 0.00 0.00 68 1014.2
20260906142056 30 0 0.0 3.2 0.00 0.00 0.00 70 1014.3
20260906141605 30 0 0.0 3.2 0.00 0.00 0.00 72 1014.3
20260906141055 30 0 0.0 3.2 0.00 0.00 0.00 75 1014.4
20260906140556 29 0 0.0 1.6 0.00 0.00 0.00 78 1014.4
20260906135555 28 0 0.0 4.8 0.00 0.00 0.00 81 1014.4
20260906135056 27 0 0.0 3.2 0.00 0.00 0.00 81 1014.5
20260906134601 27 0 0.0 4.8 0.00 0.00 0.00 83 1014.5
20260906134056 27 0 0.0 4.8 0.00 0.00 0.00 84 1014.5
20260906133559 27 0 0.0 4.8 0.00 0.00 0.00 84 1014.5
20260906133109 26 130 0.0 4.8 0.00 0.00 0.00 85 1014.5
20260906132556 26 0 0.0 4.8 0.00 0.00 0.00 85 1014.6
20260906132058 26 0 0.0 0.0 0.00 0.00 0.00 86 1014.6
20260906131610 26 0 0.0 0.0 0.00 0.00 0.00 86 1014.5
20260906131055 25 0 0.0 0.0 0.00 0.00 0.00 87 1014.4
20260906130555 25 0 0.0 0.0 0.00 0.00 0.00 86 1014.4
20260906130103 25 0 0.0 0.0 0.00 0.00 0.00 86 1014.3
20260906125555 25 0 0.0 0.0 0.00 0.00 0.00 86 1014.2
20260906125054 25 0 0.0 0.0 0.00 0.00 0.00 86 1014.2
20260906124605 25 0 0.0 0.0 0.00 0.00 0.00 86 1014.2
20260906124056 24 0 0.0 0.0 0.00 0.00 0.00 86 1014.3
20260906123555 24 0 0.0 0.0 0.00 0.00 0.00 86 1014.3
20260906123111 24 0 0.0 0.0 0.00 0.00 0.00 86 1014.2
20260906122556 24 0 0.0 0.0 0.00 0.00 0.00 86 1014.2
20260906122057 24 0 0.0 0.0 0.00 0.00 0.00 86 1014.1
20260906121602 24 0 0.0 0.0 0.00 0.00 0.00 86 1014.1
20260906121056 24 0 0.0 0.0 0.00 0.00 0.00 86 1014.0
20260906120558 24 0 0.0 0.0 0.00 0.00 0.00 86 1013.9
20260906120113 24 0 0.0 0.0 0.00 0.00 0.00 86 1013.8
20260906115556 24 0 0.0 0.0 0.00 0.00 0.00 86 1013.9
20260906115057 24 0 0.0 0.0 0.00 0.00 0.00 86 1013.9
20260906114601 24 0 0.0 0.0 0.00 0.00 0.00 86 1013.8
20260906114056 24 0 0.0 0.0 0.00 0.00 0.00 86 1013.7
20260906113555 24 0 0.0 0.0 0.00 0.00 0.00 86 1013.7
20260906113103 24 0 0.0 0.0 0.00 0.00 0.00 86 1013.6
20260906112555 24 0 0.0 0.0 0.00 0.00 0.00 86 1013.6
20260906112055 24 0 0.0 0.0 0.00 0.00 0.00 86 1013.6
20260906111600 24 0 0.0 0.0 0.00 0.00 0.00 86 1013.6
20260906111059 24 0 0.0 0.0 0.00 0.00 0.00 86 1013.6
20260906110555 24 0 0.0 0.0 0.00 0.00 0.00 86 1013.6
20260906110111 24 0 0.0 0.0 0.00 0.00 0.00 86 1013.6
20260906105556 24 0 0.0 0.0 0.00 0.00 0.00 86 1013.5
20260906105056 24 0 0.0 0.0 0.00 0.00 0.00 86 1013.4
20260906104605 24 0 0.0 0.0 0.00 0.00 0.00 86 1013.4
20260906104058 24 0 0.0 0.0 0.00 0.00 0.00 86 1013.3
20260906103556 24 0 0.0 0.0 0.00 0.00 0.00 86 1013.3
20260906103105 24 0 0.0 0.0 0.00 0.00 0.00 86 1013.2
20260906102555 24 0 0.0 0.0 0.00 0.00 0.00 85 1013.2
20260906102055 24 0 0.0 0.0 0.00 0.00 0.00 85 1013.2
20260906101604 24 0 0.0 0.0 0.00 0.00 0.00 85 1013.2
20260906101055 24 0 0.0 0.0 0.00 0.00 0.00 85 1013.2
20260906100556 24 0 0.0 0.0 0.00 0.00 0.00 85 1013.2
20260906100110 24 0 0.0 0.0 0.00 0.00 0.00 85 1013.2
20260906095556 24 0 0.0 0.0 0.00 0.00 0.00 85 1013.3
20260906095059 24 0 0.0 0.0 0.00 0.00 0.00 85 1013.2
20260906094559 24 0 0.0 0.0 0.00 0.00 0.00 85 1013.3
20260906094055 24 0 0.0 1.6 0.00 0.00 0.00 85 1013.3
20260906093556 24 0 0.0 1.6 0.00 0.00 0.00 85 1013.2
20260906093117 24 0 0.0 1.6 0.00 0.00 0.00 84 1013.1
20260906092556 24 0 0.0 0.0 0.00 0.00 0.00 84 1013.0
20260906092056 25 0 0.0 0.0 0.00 0.00 0.00 84 1013.1
20260906091600 25 0 0.0 0.0 0.00 0.00 0.00 83 1013.0
20260906091059 25 0 0.0 0.0 0.00 0.00 0.00 83 1012.9
20260906090555 25 0 0.0 3.2 0.00 0.00 0.00 83 1012.8
20260906090124 25 0 0.0 3.2 0.00 0.00 0.00 82 1012.8
20260906085555 25 0 0.0 1.6 0.00 0.00 0.00 82 1012.7
20260906085055 25 0 0.0 3.2 0.00 0.00 0.00 81 1012.7
20260906084601 26 0 0.0 3.2 0.00 0.00 0.00 81 1012.8
20260906084056 26 0 0.0 3.2 0.00 0.00 0.00 81 1012.8
20260906083555 26 0 0.0 1.6 0.00 0.00 0.00 80 1012.6
20260906083103 27 0 0.0 1.6 0.00 0.00 0.00 80 1012.5
20260906082556 27 0 0.0 3.2 0.00 0.00 0.00 79 1012.4
20260906082057 27 0 0.0 3.2 0.00 0.00 0.00 78 1012.4
20260906081604 27 0 0.0 3.2 0.00 0.00 0.00 75 1012.4
20260906081059 27 0 0.0 4.8 0.00 0.00 0.00 73 1012.4
20260906080556 27 192 0.0 4.8 0.00 0.00 0.00 73 1012.5
20260906080104 27 0 0.0 4.8 0.00 0.00 0.00 73 1012.7
20260906075555 27 191 0.0 4.8 0.00 0.00 0.00 72 1012.7
20260906075055 27 0 0.0 3.2 0.00 0.00 0.00 72 1012.7
20260906074606 27 0 0.0 1.6 0.00 0.00 0.00 72 1012.7
20260906074055 27 191 0.0 1.6 0.00 0.00 0.00 72 1012.7
20260906073555 27 0 0.0 3.2 0.00 0.00 0.00 71 1012.8
20260906073100 27 0 0.0 3.2 0.00 0.00 0.00 71 1012.8
20260906072558 27 0 0.0 3.2 0.00 0.00 0.00 71 1012.9
20260906072056 27 0 0.0 3.2 0.00 0.00 0.00 70 1013.0
20260906071610 27 0 0.0 3.2 0.00 0.00 0.00 70 1013.1
20260906071056 27 0 0.0 1.6 0.00 0.00 0.00 70 1013.0
20260906070556 27 192 0.0 1.6 0.00 0.00 0.00 70 1013.2
20260906070103 27 0 0.0 3.2 0.00 0.00 0.00 70 1013.1
20260906065556 27 0 0.0 3.2 0.00 0.00 0.00 70 1013.1
20260906065055 28 0 0.0 3.2 0.00 0.00 0.00 69 1013.1
20260906064601 28 0 0.0 1.6 0.00 0.00 0.00 69 1013.0
20260906064056 28 0 0.0 3.2 0.00 0.00 0.00 69 1012.9
20260906063555 28 192 0.0 3.2 0.00 0.00 0.00 69 1012.9
20260906063106 28 0 0.0 3.2 0.00 0.00 0.00 68 1012.9
20260906062555 28 0 0.0 3.2 0.00 0.00 0.00 68 1012.9
20260906062059 28 0 0.0 4.8 0.00 0.00 0.00 68 1012.8
20260906061602 28 0 1.6 4.8 0.00 0.00 0.00 68 1013.0
20260906061055 28 0 0.0 3.2 0.00 0.00 0.00 68 1013.1
20260906060555 28 192 0.0 3.2 0.00 0.00 0.00 67 1012.9
20260906060106 28 0 0.0 4.8 0.00 0.00 0.00 67 1012.9
20260906055555 28 0 0.0 4.8 0.00 0.00 0.00 67 1013.0
20260906055056 28 191 0.0 3.2 0.00 0.00 0.00 66 1013.0
20260906054612 28 191 0.0 1.6 0.00 0.00 0.00 66 1013.1
20260906054056 28 0 0.0 1.6 0.00 0.00 0.00 65 1013.2
20260906053556 28 0 0.0 1.6 0.00 0.00 0.00 65 1013.2
20260906053102 28 0 0.0 3.2 0.00 0.00 0.00 65 1013.2
20260906052555 29 0 0.0 3.2 0.00 0.00 0.00 65 1013.1
20260906052056 29 0 0.0 3.2 0.00 0.00 0.00 65 1013.1
20260906051606 29 0 0.0 3.2 0.00 0.00 0.00 64 1013.2
20260906051055 29 0 0.0 0.0 0.00 0.00 0.00 64 1013.0
20260906050555 29 0 0.0 1.6 0.00 0.00 0.00 64 1013.0
20260906050133 29 0 0.0 6.4 0.00 0.00 0.00 63 1013.0
20260906045556 29 0 0.0 6.4 0.00 0.00 0.00 63 1013.1
20260906045058 29 190 0.0 6.4 0.00 0.00 0.00 63 1013.1
20260906044604 29 190 0.0 4.8 0.00 0.00 0.00 63 1013.1
20260906044056 30 0 0.0 4.8 0.00 0.00 0.00 62 1013.2
20260906043555 30 0 0.0 4.8 0.00 0.00 0.00 62 1013.2
20260906043109 30 0 0.0 3.2 0.00 0.00 0.00 62 1013.2
20260906042556 30 0 0.0 4.8 0.00 0.00 0.00 61 1013.1
20260906042058 30 0 0.0 4.8 0.00 0.00 0.00 61 1013.1
20260906041602 30 0 0.0 4.8 0.00 0.00 0.00 61 1013.0
20260906041055 30 0 0.0 4.8 0.00 0.00 0.00 60 1012.9
20260906040556 30 0 0.0 4.8 0.00 0.00 0.00 60 1012.9
20260906040104 30 0 0.0 6.4 0.00 0.00 0.00 60 1012.9
20260906035556 30 0 0.0 6.4 0.00 0.00 0.00 60 1012.9
20260906035056 30 179 0.0 3.2 0.00 0.00 0.00 59 1013.1
20260906034601 30 0 0.0 4.8 0.00 0.00 0.00 59 1013.0
20260906034059 30 184 0.0 4.8 0.00 0.00 0.00 59 1013.0
20260906033556 31 182 0.0 4.8 0.00 0.00 0.00 58 1013.1
20260906033101 31 0 0.0 8.0 0.00 0.00 0.00 58 1013.0
20260906032555 31 92 0.0 8.0 0.00 0.00 0.00 58 1013.1
20260906032056 31 150 0.0 6.4 0.00 0.00 0.00 57 1013.1
20260906031601 31 142 1.6 9.7 0.00 0.00 0.00 57 1013.0
20260906031056 31 161 0.0 9.7 0.00 0.00 0.00 57 1013.0
20260906030556 31 0 1.6 9.7 0.00 0.00 0.00 56 1013.0
20260906030135 31 0 0.0 6.4 0.00 0.00 0.00 56 1013.0
20260906025556 31 0 1.6 6.4 0.00 0.00 0.00 56 1012.9
20260906025056 32 0 1.6 6.4 0.00 0.00 0.00 55 1012.8
20260906024603 32 109 0.0 8.0 0.00 0.00 0.00 54 1012.7
20260906024055 32 175 1.6 12.9 0.00 0.00 0.00 54 1012.6
20260906023556 32 148 1.6 12.9 0.00 0.00 0.00 54 1012.5
20260906023126 32 192 1.6 11.3 0.00 0.00 0.00 53 1012.5
20260906022555 32 117 1.6 12.9 0.00 0.00 0.00 52 1012.4
20260906022057 32 149 3.2 12.9 0.00 0.00 0.00 51 1012.2
20260906021614 33 108 3.2 8.0 0.00 0.00 0.00 50 1012.2
20260906021057 33 86 0.0 3.2 0.00 0.00 0.00 47 1012.0
20260906020555 33 0 0.0 3.2 0.00 0.00 0.00 47 1012.0
20260906015555 33 0 0.0 3.2 0.00 0.00 0.00 46 1011.9
20260906015056 33 0 0.0 1.6 0.00 0.00 0.00 45 1011.7
20260906014621 33 0 0.0 1.6 0.00 0.00 0.00 45 1011.6
20260906014055 33 0 0.0 1.6 0.00 0.00 0.00 44 1011.6
20260906013555 33 0 0.0 1.6 0.00 0.00 0.00 44 1011.6
20260906013102 34 0 0.0 1.6 0.00 0.00 0.00 43 1011.6
20260906012555 34 0 0.0 1.6 0.00 0.00 0.00 43 1011.5
20260906012055 34 0 0.0 1.6 0.00 0.00 0.00 43 1011.4
20260906011607 35 0 0.0 1.6 0.00 0.00 0.00 42 1011.3
20260906011056 35 0 0.0 1.6 0.00 0.00 0.00 42 1011.4
20260906010555 35 0 0.0 4.8 0.00 0.00 0.00 41 1011.2
20260906010104 35 0 0.0 4.8 0.00 0.00 0.00 41 1011.2
20260906005555 35 84 0.0 4.8 0.00 0.00 0.00 41 1011.1
20260906005055 35 117 0.0 4.8 0.00 0.00 0.00 41 1011.1
20260906004609 36 116 1.6 9.7 0.00 0.00 0.00 40 1011.2
20260906004056 36 0 0.0 9.7 0.00 0.00 0.00 40 1011.2
20260906003556 36 112 1.6 9.7 0.00 0.00 0.00 39 1011.1
20260906003109 36 0 0.0 6.4 0.00 0.00 0.00 39 1011.1
20260906002555 36 0 0.0 8.0 0.00 0.00 0.00 39 1011.1
20260906002056 36 0 0.0 9.7 0.00 0.00 0.00 39 1011.2
20260906001604 36 73 1.6 9.7 0.00 0.00 0.00 39 1011.1
20260906001056 36 88 1.6 9.7 0.00 0.00 0.00 39 1011.1
20260906000555 37 94 3.2 11.3 0.00 0.00 0.00 38 1011.1
20260905235556 37 73 3.2 11.3 0.00 0.00 0.00 37 1011.0
20260905235056 37 94 1.6 11.3 0.00 0.00 0.00 37 1011.0
20260905234615 37 95 1.6 11.3 0.00 0.00 0.00 37 1011.0
20260905234056 37 67 3.2 9.7 0.00 0.00 0.00 37 1010.9
20260905233556 38 126 1.6 9.7 0.00 0.00 0.00 36 1010.9
20260905233059 38 136 1.6 11.3 0.00 0.00 0.00 36 1010.9
20260905232555 38 76 3.2 11.3 0.00 0.00 0.00 36 1010.9
20260905232056 38 88 1.6 9.7 0.00 0.00 0.00 35 1010.9
20260905231603 38 99 1.6 9.7 0.00 0.00 0.00 35 1011.0
20260905231055 38 66 0.0 9.7 0.00 0.00 0.00 35 1010.9
20260905230555 38 90 3.2 9.7 0.00 0.00 0.00 35 1010.9
20260905230103 38 63 3.2 9.7 0.00 0.00 0.00 35 1010.9
20260905225559 38 107 1.6 9.7 0.00 0.00 0.00 35 1010.9
20260905225056 38 101 0.0 6.4 0.00 0.00 0.00 35 1010.9
20260905224609 38 0 1.6 12.9 0.00 0.00 0.00 35 1010.9
20260905224056 38 73 1.6 12.9 0.00 0.00 0.00 35 1010.8
20260905223557 38 65 4.8 17.7 0.00 0.00 0.00 35 1010.9
20260905223104 38 82 6.4 17.7 0.00 0.00 0.00 36 1011.0
20260905222555 38 79 3.2 16.1 0.00 0.00 0.00 35 1010.9
20260905222055 39 67 8.0 16.1 0.00 0.00 0.00 34 1010.9